• In Germany
  • List of Countries
  • For 7 days
  • Water Temperature
  • Satellite Maps
  • Weather Map
  • Weather Widgets
  • user-avatar
    Login

    Hourly Weather Naumenky

    Today, 24 September, Monday

    Time Temperature Precipitation Wind Pressure Humidity
    00:00 +10°C° 0 mm 2 mps 750 mmHg 73%
    01:00 +10°C° 0 mm 2 mps 750 mmHg 74%
    02:00 +10°C° 0 mm 2 mps 750 mmHg 75%
    03:00 +10°C° 0 mm 3 mps 749 mmHg 75%
    04:00 +10°C° 0 mm 3 mps 749 mmHg 74%
    05:00 +10°C° 0 mm 4 mps 748 mmHg 74%
    06:00 +10°C° 0 mm 5 mps 748 mmHg 67%
    07:00 +12°C° 0 mm 7 mps 747 mmHg 61%
    08:00 +13°C° 0 mm 8 mps 747 mmHg 54%
    09:00 +15°C° 0 mm 8 mps 746 mmHg 51%
    10:00 +16°C° 0 mm 9 mps 746 mmHg 49%
    11:00 +17°C° 0 mm 9 mps 745 mmHg 47%
    12:00 +16°C° 0.9 mm 8 mps 745 mmHg 53%
    13:00 +16°C° 0.9 mm 7 mps 744 mmHg 59%
    14:00 +16°C° 0.9 mm 6 mps 743 mmHg 64%
    15:00 +15°C° 3.5 mm 6 mps 743 mmHg 72%
    16:00 +14°C° 3.5 mm 6 mps 743 mmHg 79%
    17:00 +14°C° 3.5 mm 6 mps 743 mmHg 87%
    18:00 +13°C° 2.4 mm 6 mps 743 mmHg 87%
    19:00 +12°C° 2.4 mm 5 mps 744 mmHg 87%
    20:00 +10°C° 2.4 mm 5 mps 744 mmHg 87%
    21:00 +9°C° 0.4 mm 5 mps 744 mmHg 86%
    22:00 +9°C° 0.4 mm 5 mps 745 mmHg 84%
    23:00 +9°C° 0.4 mm 5 mps 745 mmHg 83%

    Tomorrow, 25 September, Tuesday

    Time Temperature Precipitation Wind Pressure Humidity
    00:00 +8°C° 0 mm 5 mps 745 mmHg 83%
    01:00 +8°C° 0 mm 5 mps 745 mmHg 84%
    02:00 +8°C° 0 mm 5 mps 746 mmHg 84%
    03:00 +7°C° 0 mm 5 mps 746 mmHg 86%
    04:00 +7°C° 0 mm 5 mps 746 mmHg 88%
    05:00 +6°C° 0 mm 4 mps 746 mmHg 89%
    06:00 +7°C° 0 mm 5 mps 746 mmHg 86%
    07:00 +8°C° 0 mm 5 mps 746 mmHg 83%
    08:00 +8°C° 0 mm 5 mps 747 mmHg 80%
    09:00 +8°C° 0.1 mm 5 mps 747 mmHg 79%
    10:00 +9°C° 0.1 mm 5 mps 748 mmHg 78%
    11:00 +9°C° 0.1 mm 5 mps 748 mmHg 77%
    12:00 +9°C° 0.5 mm 5 mps 748 mmHg 78%
    13:00 +9°C° 0.5 mm 5 mps 749 mmHg 78%
    14:00 +9°C° 0.5 mm 6 mps 749 mmHg 79%
    15:00 +9°C° 0.5 mm 6 mps 750 mmHg 79%
    16:00 +8°C° 0.5 mm 6 mps 750 mmHg 79%
    17:00 +8°C° 0.5 mm 6 mps 751 mmHg 79%
    18:00 +8°C° 0 mm 6 mps 751 mmHg 79%
    19:00 +7°C° 0 mm 5 mps 752 mmHg 79%
    20:00 +7°C° 0 mm 5 mps 753 mmHg 79%
    21:00 +6°C° 0 mm 5 mps 753 mmHg 80%
    22:00 +5°C° 0 mm 4 mps 754 mmHg 82%
    23:00 +5°C° 0 mm 4 mps 754 mmHg 84%

    Day after tomorrow, 26 September, Wednesday

    Time Temperature Precipitation Wind Pressure Humidity
    00:00 +4°C° 0 mm 3 mps 755 mmHg 86%
    01:00 +4°C° 0 mm 3 mps 755 mmHg 87%
    02:00 +3°C° 0 mm 3 mps 756 mmHg 89%
    03:00 +3°C° 0 mm 3 mps 756 mmHg 90%
    04:00 +3°C° 0 mm 3 mps 757 mmHg 91%
    05:00 +3°C° 0 mm 3 mps 757 mmHg 91%
    06:00 +4°C° 0 mm 4 mps 758 mmHg 86%
    07:00 +5°C° 0 mm 4 mps 758 mmHg 82%
    08:00 +6°C° 0 mm 5 mps 759 mmHg 77%
    09:00 +7°C° 0 mm 5 mps 759 mmHg 70%
    10:00 +8°C° 0 mm 5 mps 759 mmHg 63%
    11:00 +9°C° 0 mm 5 mps 760 mmHg 56%
    12:00 +9°C° 0.1 mm 5 mps 760 mmHg 52%
    13:00 +10°C° 0.1 mm 5 mps 760 mmHg 49%
    14:00 +10°C° 0.1 mm 5 mps 760 mmHg 45%
    15:00 +10°C° 0 mm 4 mps 760 mmHg 48%
    16:00 +10°C° 0 mm 3 mps 760 mmHg 50%
    17:00 +9°C° 0 mm 3 mps 760 mmHg 52%
    18:00 +8°C° 0 mm 3 mps 760 mmHg 54%
    19:00 +7°C° 0 mm 2 mps 760 mmHg 56%
    20:00 +5°C° 0 mm 2 mps 760 mmHg 58%
    21:00 +5°C° 0 mm 2 mps 760 mmHg 60%
    22:00 +5°C° 0 mm 2 mps 760 mmHg 61%
    23:00 +4°C° 0 mm 2 mps 760 mmHg 62%

    27 September, Thursday

    Time Temperature Precipitation Wind Pressure Humidity
    00:00 +3°C° 0 mm 3 mps 760 mmHg 63%
    01:00 +3°C° 0 mm 3 mps 759 mmHg 64%
    02:00 +3°C° 0 mm 3 mps 759 mmHg 65%
    03:00 +4°C° 0 mm 4 mps 759 mmHg 66%
    04:00 +4°C° 0 mm 4 mps 758 mmHg 66%
    05:00 +5°C° 0 mm 4 mps 758 mmHg 67%
    06:00 +6°C° 0 mm 5 mps 757 mmHg 64%
    07:00 +7°C° 0 mm 6 mps 757 mmHg 61%
    08:00 +8°C° 0 mm 7 mps 757 mmHg 59%
    09:00 +9°C° 0 mm 7 mps 756 mmHg 54%
    10:00 +11°C° 0 mm 8 mps 756 mmHg 50%
    11:00 +12°C° 0 mm 8 mps 756 mmHg 46%
    12:00 +13°C° 0 mm 8 mps 755 mmHg 47%
    13:00 +13°C° 0 mm 8 mps 754 mmHg 47%
    14:00 +15°C° 0 mm 8 mps 754 mmHg 47%
    15:00 +14°C° 0 mm 7 mps 754 mmHg 51%
    16:00 +14°C° 0 mm 6 mps 754 mmHg 55%
    17:00 +13°C° 0 mm 4 mps 753 mmHg 58%
    18:00 +13°C° 0 mm 4 mps 753 mmHg 60%
    19:00 +12°C° 0 mm 4 mps 754 mmHg 62%
    20:00 +12°C° 0 mm 4 mps 754 mmHg 64%
    21:00 +12°C° 0 mm 4 mps 753 mmHg 66%
    22:00 +11°C° 0 mm 4 mps 753 mmHg 68%
    23:00 +11°C° 0 mm 4 mps 753 mmHg 69%

    28 September, Friday

    Time Temperature Precipitation Wind Pressure Humidity
    00:00 +11°C° 0 mm 4 mps 753 mmHg 74%
    01:00 +10°C° 0 mm 3 mps 753 mmHg 78%
    02:00 +10°C° 0 mm 3 mps 753 mmHg 82%
    03:00 +9°C° 0 mm 3 mps 752 mmHg 84%
    04:00 +9°C° 0 mm 3 mps 752 mmHg 87%
    05:00 +9°C° 0 mm 3 mps 752 mmHg 89%
    06:00 +10°C° 0 mm 4 mps 752 mmHg 85%
    07:00 +11°C° 0 mm 4 mps 752 mmHg 81%
    08:00 +13°C° 0 mm 5 mps 752 mmHg 77%
    09:00 +14°C° 0 mm 5 mps 751 mmHg 72%
    10:00 +16°C° 0 mm 6 mps 751 mmHg 67%
    11:00 +19°C° 0 mm 6 mps 751 mmHg 61%
    12:00 +20°C° 0 mm 6 mps 751 mmHg 60%
    13:00 +21°C° 0 mm 7 mps 750 mmHg 58%
    14:00 +21°C° 0 mm 7 mps 750 mmHg 56%
    15:00 +20°C° 0 mm 6 mps 750 mmHg 59%
    16:00 +20°C° 0 mm 4 mps 750 mmHg 63%
    17:00 +19°C° 0 mm 3 mps 750 mmHg 67%
    18:00 +18°C° 0 mm 3 mps 750 mmHg 72%
    19:00 +17°C° 0 mm 2 mps 751 mmHg 76%
    20:00 +15°C° 0 mm 2 mps 751 mmHg 81%
    21:00 +15°C° 0 mm 2 mps 751 mmHg 84%
    22:00 +14°C° 0 mm 2 mps 751 mmHg 86%
    23:00 +14°C° 0 mm 2 mps 751 mmHg 89%

    29 September, Saturday

    Time Temperature Precipitation Wind Pressure Humidity
    00:00 +14°C° 0 mm 2 mps 751 mmHg 88%
    01:00 +14°C° 0 mm 2 mps 752 mmHg 87%
    02:00 +14°C° 0 mm 2 mps 752 mmHg 86%
    03:00 +13°C° 0 mm 2 mps 752 mmHg 86%
    04:00 +13°C° 0 mm 2 mps 752 mmHg 85%
    05:00 +13°C° 0 mm 2 mps 752 mmHg 85%
    06:00 +13°C° 0.2 mm 2 mps 752 mmHg 84%
    07:00 +13°C° 0.2 mm 2 mps 752 mmHg 83%
    08:00 +13°C° 0.2 mm 2 mps 752 mmHg 82%
    09:00 +12°C° 0.9 mm 3 mps 752 mmHg 83%
    10:00 +12°C° 0.9 mm 3 mps 752 mmHg 84%
    11:00 +12°C° 0.9 mm 3 mps 752 mmHg 85%
    12:00 +11°C° 1.1 mm 4 mps 752 mmHg 85%
    13:00 +10°C° 1.1 mm 5 mps 752 mmHg 86%
    14:00 +9°C° 1.1 mm 6 mps 751 mmHg 86%
    15:00 +9°C° 1.2 mm 6 mps 752 mmHg 85%
    16:00 +8°C° 1.2 mm 6 mps 752 mmHg 85%
    17:00 +8°C° 1.2 mm 6 mps 753 mmHg 85%
    18:00 +7°C° 0.7 mm 6 mps 753 mmHg 85%
    19:00 +7°C° 0.7 mm 6 mps 754 mmHg 85%
    20:00 +7°C° 0.7 mm 6 mps 754 mmHg 85%
    21:00 +7°C° 0.1 mm 5 mps 755 mmHg 85%
    22:00 +7°C° 0.1 mm 5 mps 755 mmHg 84%
    23:00 +6°C° 0.1 mm 5 mps 755 mmHg 83%
    Show more

    3.3.7123123